Lid_Strength_Index
-1 -0 0 3 11 11 13 12 8 9 9 6 6 7 8 7 9 12 2 1 0 0 -1 -1 -1 -1 -1 -2 -2 -1 -1 -1 -1 -1 -1 -1 -1 -1 -1 -1 -1 -1 -1 -1 -1 -1 -1 -1 -1
-0 0 2 6 13 14 13 9 10 8 6 5 5 6 7 8 4 4 3 1 1 -0 -0 -1 -1 -1 -1 -1 -2 -1 -1 -1 -1 -1 -1 -1 -1 -1 -1 -1 -1 -1 -1 -1 -1 -1 -1 -1 -2
0 1 6 9 10 14 14 9 8 6 5 6 6 5 5 7 4 3 2 1 0 -0 -1 -1 -1 -2 -1 -1 -1 -1 -1 -1 -1 -1 -1 -1 -1 -1 -1 -1 -1 -1 -1 -1 -1 -1 -1 -1 -2
2 3 5 10 12 9 9 8 6 6 5 5 5 7 4 2 3 1 0 -0 0 0 -0 -1 -1 -1 -1 -1 -1 -1 -1 -1 -1 -1 -1 -1 -1 -1 -1 -1 -1 -1 -1 -1 -1 -1 -1 -1 -1
2 5 11 10 9 8 7 6 6 7 7 6 5 7 6 3 2 1 0 -0 0 0 -0 -1 -2 -1 -1 -1 -1 -1 -1 -1 -1 -1 -1 -1 -1 -1 -1 -1 -1 -1 -1 -1 -1 -1 -1 -1 -1
7 6 9 11 10 7 6 5 6 6 6 6 5 6 6 2 2 1 0 0 -0 0 -0 -1 -1 -1 -1 -1 -1 -1 -1 -1 -1 -1 -1 -1 -1 -1 -1 -1 -1 -1 -1 -1 -1 -1 -1 -1 -1
8 10 9 9 9 8 7 6 7 6 6 7 4 7 5 3 1 1 1 0 -0 -0 -0 -0 -0 -1 -1 -1 -1 -1 -1 -1 -1 -1 -1 -1 -1 -1 -1 -1 -1 -1 -1 -1 -1 -1 -1 -1 -1
6 6 8 8 9 10 6 5 4 5 6 3 3 7 7 3 1 1 0 0 0 0 -0 -0 -1 -1 -1 -1 -1 -1 -1 -1 -1 -1 -1 -1 -1 -1 -1 -2 -1 -1 -1 -1 -1 -1 -1 -1 -1
3 8 9 9 9 8 5 6 4 3 5 4 4 4 3 2 1 1 1 1 1 1 0 -0 -0 -0 -1 -1 -1 -1 -1 -1 -1 -1 -2 -1 -1 -1 -1 -2 -2 -1 -1 -1 -1 -2 -2 -1 -1
5 7 8 6 6 7 5 5 5 5 5 5 4 3 2 2 2 3 3 3 2 1 1 0 -0 -0 -0 -0 -1 -1 -1 -1 -1 -2 -2 -1 -1 -1 -1 -2 -2 -1 -1 -1 -1 -1 -1 -1 -1
6 7 6 5 5 5 6 6 4 6 7 5 5 4 3 3 2 3 2 2 2 1 1 0 0 -0 -0 -0 -1 -1 -1 -1 -1 -2 -2 -1 -1 -1 -1 -1 -1 -1 -1 -1 -1 -1 -1 -1 -1
8 5 5 5 4 5 6 5 5 5 5 3 3 3 3 3 3 3 2 2 2 1 1 0 -0 -0 -0 -0 -1 -0 -0 -1 -0 -1 -2 -1 -1 -0 -0 -1 -1 -0 -1 -1 -1 -1 -1 -1 -1
7 5 5 4 5 5 5 6 5 5 4 3 3 3 3 3 3 2 2 1 1 1 1 1 -0 -0 -1 -1 -1 -0 -0 -0 -1 -0 -1 -2 -1 -0 -1 -1 -1 -1 -1 -1 -0 -1 -0 -1 -0
5 5 5 5 5 5 6 6 5 5 3 4 3 4 3 3 3 2 2 2 1 1 1 0 0 -0 -1 -1 -1 -0 -0 -1 -0 -0 -1 -2 -1 -0 -0 -0 -0 -0 -2 -1 -1 -1 -0 -0 -1
6 9 8 6 5 7 6 9 8 4 4 4 4 4 3 3 2 2 2 2 1 1 1 0 0 -0 -0 -0 -1 -0 -1 -0 -0 -1 -1 -2 -2 -1 -1 -0 -0 -1 -1 -0 -1 -1 -1 -0 -0
8 9 13 8 6 6 7 13 7 4 4 5 4 4 4 3 3 2 1 1 1 1 1 1 0 0 -0 0 -0 -0 -0 -0 -0 -1 -1 -1 -2 -2 -1 -0 -0 -2 -1 -1 -0 -0 0 0 0
11 14 11 9 5 6 7 11 7 4 5 5 5 4 4 3 3 2 1 1 1 1 1 1 0 0 0 -0 -0 -0 -0 -1 -0 -0 -1 -1 -1 -2 -1 -0 -1 -2 -1 -0 -0 0 0 1 1
14 14 12 11 6 6 7 9 6 5 5 5 5 4 4 4 3 2 2 1 1 1 1 0 1 0 0 0 -0 -1 -0 -0 -1 -0 -0 -2 -2 -2 -1 -1 -0 -1 0 0 0 0 0 1 1
9 11 12 9 5 6 7 7 7 6 5 5 5 5 4 4 3 2 2 1 1 1 1 1 1 1 1 1 1 1 1 0 0 -0 -1 -2 -2 -2 -2 -0 -0 -0 0 0 -0 0 1 1 0
8 9 10 6 5 6 6 7 6 6 6 5 5 5 4 4 3 2 2 2 2 1 1 1 1 1 1 1 1 1 1 1 0 -0 -1 -2 -2 -2 -1 -1 -0 -0 -0 -0 -0 1 1 1 0
7 7 7 8 6 6 6 8 7 6 6 5 4 4 4 4 4 3 3 2 2 2 1 1 1 1 0 -0 0 0 0 -0 1 0 0 -0 -1 -1 -1 -1 -1 -1 -0 0 -0 -0 1 2 1
8 6 6 7 8 10 6 11 10 9 8 6 5 5 4 4 3 3 3 3 2 2 1 1 1 1 1 0 1 1 2 2 1 1 0 0 -1 -1 -1 -1 -1 -1 -1 -0 -0 -0 -0 0 2
7 5 6 7 8 8 8 9 10 9 12 9 6 5 4 4 3 3 3 2 2 1 1 1 1 1 0 1 0 1 1 1 1 1 1 0 -0 -1 -1 -1 -1 -1 -1 -1 -1 -0 0 0 1
5 6 6 7 8 11 8 9 9 9 9 7 7 6 4 4 3 3 2 2 2 1 1 1 1 1 1 1 1 1 1 1 2 1 1 1 1 0 -0 -1 -1 -1 -1 -0 -0 -0 -0 0 1
6 7 10 11 11 12 8 9 8 7 6 6 7 6 4 4 4 3 3 3 2 2 2 1 2 2 1 1 1 1 1 1 1 1 1 1 1 1 -0 -0 -1 -1 -1 -1 -1 -0 -0 0 1
7 7 10 13 12 11 8 10 8 6 5 4 5 5 4 4 4 3 3 3 2 2 2 2 2 2 1 1 1 1 1 1 1 1 1 1 1 1 -0 -0 -0 -1 -1 -1 -1 -0 0 -0 0
7 8 7 9 9 10 9 8 6 6 7 6 4 4 4 4 3 3 3 3 2 2 2 2 2 2 2 1 1 1 1 1 1 0 0 0 0 0 -0 -0 -0 -1 -1 -1 -1 0 0 -0 -0
6 6 9 9 12 13 10 9 9 8 8 5 5 4 4 3 3 3 3 3 2 2 2 2 2 2 2 1 1 1 1 1 0 0 0 0 0 0 0 0 -0 -0 -1 -1 -1 0 -0 0 0
7 8 7 8 9 12 12 10 6 6 6 6 5 4 3 3 3 3 3 2 2 2 2 2 2 2 2 1 1 1 1 1 1 1 0 0 0 0 0 0 0 -0 -0 -0 0 0 0 0 0
6 7 7 10 10 9 10 10 6 5 5 4 4 3 3 3 3 3 3 3 3 2 2 2 2 2 2 1 1 1 1 1 1 1 1 0 0 -0 0 -0 0 -0 -0 -0 0 0 0 0 1